Location: Waco, TX
(31.5480°N, 97.1670°W)
Time: 13:49:22

ISS - Pass Details

Date: 19 March 2018
Orbit: 403 x 406 km, 51.6° (Epoch: 21 March)

Event Time Altitude Azimuth Distance (km) Brightness Sun altitude
Rises 22:32:14 0° 231° (SW) 2,310 - -36.4°
Reaches altitude 10° 22:34:19 10° 235° (SW) 1,454 - -36.8°
Maximum altitude 22:37:33 60° 316° (NW) 465 - -37.4°
Drops below altitude 10° 22:40:47 10° 38° (NE) 1,461 - -38.0°
Sets 22:42:54 0° 42° (NE) 2,324 - -38.4°
